Weather History for Adrian, MI

Change the Weather History Date:

Saturday, May 11, 2013

  Actual Average Record
Temperature  
Mean Temperature 49 °F -  
Max Temperature 60 °F 70 °F 86 °F (1979)
Min Temperature 39 °F 45 °F 32 °F (1949)
Degree Days  
Heating Degree Days 16    
Moisture  
Dew Point 40 °F    
Average Humidity 77    
Maximum Humidity 89    
Minimum Humidity 53    
Precipitation  
Precipitation 0.00 in - - ()
Sea Level Pressure  
Sea Level Pressure 29.88 in    
Wind  
Wind Speed 9 mph (NW)    
Max Wind Speed 22 mph    
Max Gust Speed 37 mph    
Visibility 10 miles    
Events Rain    
Averages and records for this station are not official NWS values.
T = Trace of Precipitation, MM = Missing Value Source: NWS Daily Summary

Daily Weather History Graph

Daily Weather History Graph

Search for Another Location

Airport:

Trip Planner

Search our weather history database for the weather conditions in past years. The results will help you decide how hot, cold, wet, or windy it might be!

Date:

Astronomy

May. 11, 2013 Rise Set
Actual Time 6:20 AM EDT 8:45 PM EDT
Civil Twilight 5:48 AM EDT 9:17 PM EDT
Nautical Twilight 5:09 AM EDT 9:56 PM EDT
Astronomical Twilight 4:26 AM EDT 10:40 PM EDT
Moon 7:26 AM EDT (5/11) 10:25 PM EDT (5/11)
Length of Visible Light 15h 28m
Length of Day
14h 25m
Waxing Crescent, 3% of the Moon is Illuminated
May 11
Waxing Crescent
May 18
First Quarter
May 25
Full
May 31
Last Quarter
Jun 8
New

Hourly Weather History & Observations

Time (EDT) Temp. Windchill Dew Point Humidity Pressure Visibility Wind Dir Wind Speed Gust Speed Precip Events Conditions
12:40 AM 44.6 °F 38.8 °F 41.0 °F 87% 29.88 in 10.0 mi NNW 11.5 mph - N/A   Overcast
12:53 AM 44.1 °F 38.6 °F 41.0 °F 89% 29.89 in 10.0 mi NNW 10.4 mph - N/A   Overcast
1:53 AM 45.0 °F 41.2 °F 39.9 °F 82% 29.88 in 10.0 mi North 6.9 mph - N/A   Overcast
2:18 AM 44.6 °F 40.7 °F 39.2 °F 81% 29.88 in 10.0 mi North 6.9 mph - N/A   Overcast
2:53 AM 45.0 °F 41.2 °F 39.9 °F 82% 29.90 in 10.0 mi North 6.9 mph - N/A   Overcast
3:53 AM 45.0 °F 41.2 °F 39.9 °F 82% 29.90 in 10.0 mi NNW 6.9 mph - N/A   Overcast
4:53 AM 45.0 °F 41.8 °F 39.9 °F 82% 29.90 in 10.0 mi NW 5.8 mph - N/A   Overcast
5:21 AM 44.6 °F 42.2 °F 39.2 °F 81% 29.89 in 10.0 mi NNW 4.6 mph - N/A   Overcast
5:53 AM 45.0 °F 41.2 °F 39.9 °F 82% 29.90 in 10.0 mi NNW 6.9 mph - N/A   Overcast
6:14 AM 44.6 °F 41.4 °F 39.2 °F 81% 29.89 in 10.0 mi NNW 5.8 mph - N/A   Overcast
6:53 AM 44.1 °F 40.1 °F 39.9 °F 85% 29.91 in 10.0 mi North 6.9 mph - N/A   Overcast
7:06 AM 44.6 °F 41.4 °F 39.2 °F 81% 29.89 in 10.0 mi North 5.8 mph - N/A   Overcast
7:53 AM 44.1 °F 41.5 °F 41.0 °F 89% 29.91 in 10.0 mi NNW 4.6 mph - N/A   Overcast
8:53 AM 45.0 °F 42.6 °F 41.0 °F 86% 29.90 in 10.0 mi North 4.6 mph - N/A   Overcast
9:53 AM 46.0 °F 43.9 °F 42.1 °F 86% 29.91 in 10.0 mi WNW 4.6 mph - N/A   Overcast
10:53 AM 46.9 °F - 42.1 °F 83% 29.90 in 10.0 mi NW 4.6 mph - N/A   Overcast
11:04 AM 46.4 °F 44.3 °F 42.8 °F 87% 29.88 in 10.0 mi NW 4.6 mph - N/A   Overcast
11:53 AM 48.0 °F - 43.0 °F 83% 29.89 in 10.0 mi WSW 6.9 mph - N/A   Overcast
12:53 PM 50.0 °F - 43.0 °F 77% 29.87 in 10.0 mi Variable 5.8 mph - N/A   Overcast
1:53 PM 55.9 °F - 43.0 °F 62% 29.84 in 10.0 mi WSW 10.4 mph - N/A   Mostly Cloudy
2:01 PM 55.4 °F - 42.8 °F 63% 29.82 in 10.0 mi WSW 9.2 mph - N/A   Mostly Cloudy
2:53 PM 59.0 °F - 42.1 °F 53% 29.83 in 10.0 mi West 9.2 mph - N/A   Scattered Clouds
3:53 PM 57.0 °F - 43.0 °F 59% 29.81 in 10.0 mi West 13.8 mph 20.7 mph N/A   Mostly Cloudy
4:23 PM 57.2 °F - 44.6 °F 63% 29.79 in 1.8 mi West 13.8 mph - N/A   Haze
4:38 PM 55.4 °F - 44.6 °F 67% 29.79 in 10.0 mi WSW 13.8 mph 20.7 mph N/A   Overcast
4:53 PM 55.9 °F - 43.0 °F 62% 29.81 in 10.0 mi WSW 12.7 mph 23.0 mph N/A   Overcast
6:31 PM 50.0 °F - 44.6 °F 82% 29.82 in 7.0 mi WNW 17.3 mph 36.8 mph 0.00 in Rain Light Rain
6:53 PM 48.0 °F - 43.0 °F 83% 29.86 in 10.0 mi NW 16.1 mph 24.2 mph 0.00 in   Overcast
7:13 PM 46.4 °F 38.5 °F 39.2 °F 76% 29.85 in 10.0 mi NW 21.9 mph 34.5 mph N/A   Overcast
7:53 PM 46.9 °F - 36.0 °F 66% 29.89 in 10.0 mi NNW 16.1 mph 26.5 mph N/A   Mostly Cloudy
8:53 PM 43.0 °F 36.8 °F 33.1 °F 68% 29.92 in 10.0 mi NNW 11.5 mph 21.9 mph N/A   Clear
9:53 PM 42.1 °F 37.1 °F 32.0 °F 67% 29.94 in 10.0 mi NW 8.1 mph - N/A   Clear
10:53 PM 39.9 °F 36.7 °F 32.0 °F 73% 29.95 in 10.0 mi NW 4.6 mph - N/A   Clear
11:53 PM 39.0 °F 34.0 °F 32.0 °F 76% 29.96 in 10.0 mi West 6.9 mph - N/A   Clear